Probability
0 0 0 0 0 0 0 0 0 0 0 0 0 0 0 0 0 0 0 0 0 0 0 0 0 0 0 0 0 0 0 0 0 0 0 0 0 0 0 0 0 0 0
0 0 0 0 0 0 0 0 0 0 0 0 0 0 0 0 0 0 0 0 0 0 0 0 0 0 0 0 0 0 0 0 0 0 0 0 0 0 0 0 0 0 0
0 0 0 0 0 0 0 0 0 0 0 0 0 0 0 0 0 0 0 0 0 0 0 0 0 0 0 0 0 0 0 0 0 0 0 0 0 0 0 0 0 0 0
0 0 0 0 0 0 0 0 0 0 0 0 0 0 0 0 0 0 0 0 0 0 0 0 0 0 0 0 0 0 0 0 0 0 0 0 0 0 0 0 0 0 0
0 0 0 0 0 0 0 0 0 0 0 0 0 0 0 0 0 0 0 0 0 0 0 0 0 0 0 0 0 0 0 0 0 0 0 0 0 0 0 0 0 0 0
0 0 0 0 0 0 0 0 0 0 0 0 0 0 0 0 0 0 0 0 0 0 0 0 0 0 0 0 0 0 0 0 0 0 0 0 0 0 0 0 0 0 0
0 0 0 0 0 0 0 0 0 0 0 0 0 0 0 0 0 0 0 0 0 0 0 0 0 0 0 0 0 0 0 0 0 0 0 0 0 0 0 0 0 0 0
0 0 0 0 0 0 0 0 0 0 0 0 0 0 0 0 0 0 0 0 0 0 0 0 0 0 0 0 0 0 0 0 0 0 0 0 0 0 0 0 0 0 0
0 0 0 0 0 0 0 0 0 0 0 0 0 0 0 0 0 0 0 0 0 0 0 0 0 0 0 0 0 0 0 0 0 0 0 0 0 0 0 0 0 0 0
0 0 0 0 0 0 0 0 0 0 0 0 0 0 0 0 0 0 0 0 0 0 0 0 0 0 0 0 0 0 0 0 0 0 0 0 0 0 0 0 0 0 0
0 0 0 0 0 0 0 0 0 0 0 0 0 0 0 0 0 0 0 0 0 0 0 0 0 0 0 0 0 0 0 0 0 0 0 0 0 0 0 0 0 0 0
0 0 0 0 0 0 0 0 0 0 0 0 0 0 0 0 0 0 0 0 0 0 0 0 0 0 0 0 0 0 0 0 0 0 0 0 0 0 0 0 0 0 0
0 0 0 0 0 0 0 0 0 0 0 0 0 0 0 0 0 0 0 0 0 0 0 0 0 0 0 0 0 0 0 0 0 0 0 0 0 0 0 0 0 0 0
0 0 0 0 0 0 0 0 0 0 0 0 0 0 0 0 0 0 0 0 0 0 0 0 0 0 0 0 0 0 0 0 0 0 0 0 0 0 0 0 0 0 0
0 0 0 0 0 0 0 0 0 0 0 0 0 0 0 0 0 0 0 0 0 0 0 0 0 0 0 0 0 0 0 0 0 0 0 0 0 0 0 0 0 0 0
0 0 0 0 0 0 0 0 0 0 0 0 0 0 0 0 0 0 0 0 0 0 0 0 0 0 0 0 0 0 0 0 0 0 0 0 0 0 0 0 0 0 0
0 0 0 0 0 0 0 0 0 0 0 0 0 0 0 0 0 0 0 0 0 0 0 0 0 0 0 0 0 0 0 0 0 0 0 0 0 0 0 0 0 0 0
0 0 0 0 0 0 0 0 0 0 0 0 0 0 0 0 0 0 0 0 0 0 0 0 0 0 0 0 0 0 0 0 0 0 0 0 0 0 0 0 0 0 0
0 0 0 0 0 0 0 0 0 0 0 0 0 0 0 0 0 0 0 0 0 0 0 0 0 0 0 0 0 0 0 0 0 0 0 0 0 0 0 0 0 0 0
0 0 0 0 0 0 0 0 0 0 0 0 0 0 0 0 0 0 0 0 0 0 0 0 0 0 0 0 0 0 0 0 0 0 0 0 0 0 0 0 0 0 0
0 0 0 0 0 0 0 0 0 0 0 0 0 0 0 0 0 0 0 0 0 0 0 0 0 0 0 0 0 0 0 0 0 0 0 0 0 0 0 0 0 0 0
0 0 0 0 0 0 0 0 0 0 0 0 0 0 0 0 0 0 0 0 0 0 0 0 0 0 0 0 0 0 0 0 0 0 0 0 0 0 0 0 0 0 0
0 0 0 0 0 0 0 0 0 0 0 0 0 0 0 0 0 0 0 0 0 0 0 0 0 0 0 0 0 0 0 0 0 0 0 0 0 0 0 0 0 0 0
0 0 0 0 0 0 0 0 0 0 0 0 0 0 0 0 0 0 0 0 0 0 0 0 0 0 0 0 0 0 0 0 0 0 0 0 0 0 0 0 0 0 0
0 0 0 0 0 0 0 0 0 0 0 0 0 0 0 0 0 0 0 0 0 0 0 0 0 0 0 0 0 0 0 0 0 0 0 0 0 0 0 0 0 0 0
0 0 0 0 0 0 0 0 0 0 0 0 0 0 0 0 0 0 0 0 0 0 0 0 0 0 0 0 0 0 0 0 0 0 0 0 0 0 0 0 0 0 0
Wind_Speed
8 9 20 20 19 17 16 15 13 12 11 10 10 9 9 9 9 9 9 10 10 10 11 11 12 12 12 13 13 13 14 16 17 17 18 17 16 16 16 16 15 10 17
11 13 22 21 20 18 17 16 14 13 12 11 10 9 9 9 9 8 9 9 9 10 10 10 11 11 12 12 13 13 14 15 16 16 17 15 14 16 16 15 15 11 16
10 15 18 22 21 19 18 16 15 14 12 11 10 10 9 8 8 8 8 8 8 9 9 10 10 10 11 11 12 12 13 14 15 15 16 10 9 14 15 15 15 15 15
11 13 12 21 21 20 18 17 16 14 13 12 11 10 9 9 8 8 8 7 8 8 8 8 9 9 10 10 11 11 12 13 14 14 9 8 8 12 14 14 14 14 14
11 11 12 23 21 20 19 17 16 15 14 13 12 11 10 9 8 8 8 7 7 7 7 7 7 8 8 9 10 10 11 11 13 12 7 8 7 10 12 12 12 12 13
10 10 10 22 21 20 19 18 17 16 15 14 12 11 10 9 9 8 7 7 7 6 6 6 6 7 7 7 8 9 9 10 10 7 7 7 7 8 11 11 11 11 11
11 9 8 21 21 20 19 18 17 16 15 14 13 12 11 10 9 8 7 7 6 6 6 5 5 5 5 6 7 8 7 8 6 6 6 6 7 8 9 9 9 9 10
9 9 7 21 21 20 19 18 18 17 16 15 14 13 12 11 10 9 8 7 7 6 5 4 4 4 4 4 5 6 6 5 5 5 5 6 7 6 7 7 7 8 8
7 8 7 8 15 19 20 19 18 17 16 16 15 14 13 12 11 10 9 8 7 6 5 4 3 3 2 2 3 4 4 4 3 3 5 5 6 5 5 5 5 6 6
6 7 7 6 7 9 11 18 18 18 17 16 15 14 13 12 11 11 10 9 8 7 6 5 3 3 1 1 1 2 3 4 2 3 3 6 7 4 3 3 4 4 4
8 7 8 7 6 7 7 12 15 17 17 16 13 14 12 4 3 4 8 10 9 8 7 6 5 4 3 1 1 1 4 2 0 2 3 8 7 4 3 2 2 3 2
13 11 9 9 7 6 7 6 6 6 7 7 5 6 4 4 3 4 7 11 10 9 9 8 7 4 1 2 3 4 2 1 1 2 4 10 8 7 5 4 4 4 4
11 11 11 10 8 7 6 5 4 3 4 5 6 5 4 4 3 3 1 3 3 4 1 1 1 2 2 2 1 0 1 1 2 3 5 11 11 10 8 7 7 6 6
7 11 11 10 8 8 6 5 5 4 4 4 5 6 5 3 3 3 2 2 1 1 1 1 1 1 2 2 3 3 3 3 3 3 5 13 13 13 12 11 10 10 9
9 10 10 10 10 8 7 5 6 6 5 5 5 6 7 5 5 4 3 3 3 2 3 3 3 3 3 3 4 5 5 6 5 5 4 13 15 15 15 14 13 13 12
11 10 10 11 11 9 9 7 6 6 5 5 5 7 8 6 6 5 5 4 4 4 4 4 4 4 4 4 5 6 6 6 6 6 6 9 16 17 17 17 17 16 15
9 8 10 11 10 11 10 9 6 6 6 6 6 7 8 7 7 7 6 6 6 5 5 4 4 3 4 5 6 7 6 7 7 7 7 6 7 15 19 20 19 19 18
7 8 10 10 11 12 10 8 6 5 7 6 6 6 9 9 8 8 7 8 6 5 5 5 4 4 5 5 6 6 6 6 8 8 8 7 6 7 13 21 22 22 21
5 6 8 9 10 11 9 6 6 5 6 6 6 6 8 10 10 9 8 7 7 6 6 7 6 5 6 8 8 7 7 7 8 9 10 10 10 9 8 16 23 24 23
0 3 6 7 7 7 6 4 3 4 5 5 6 8 9 9 10 10 8 8 7 6 7 6 8 7 6 6 7 8 7 8 7 9 12 11 11 13 12 12 11 15 24
5 2 2 4 5 5 4 5 5 6 4 4 6 8 9 10 11 11 10 8 8 9 11 10 7 7 7 3 2 5 7 10 13 12 11 11 13 13 11 11 9 8 9
7 4 1 2 4 5 5 4 3 3 3 5 5 7 10 11 11 11 12 10 9 9 10 9 9 5 5 6 5 2 6 5 6 11 10 10 11 8 9 12 10 10 8
9 7 3 1 2 4 4 3 2 1 1 1 4 6 9 10 11 12 13 12 10 11 11 13 12 11 9 7 8 7 5 7 4 4 6 8 8 8 8 7 10 11 12
8 6 5 3 1 1 4 4 5 4 5 6 4 5 6 8 11 13 13 13 12 11 13 13 13 12 10 9 6 9 10 6 4 6 4 4 6 8 9 9 10 12 12
6 6 6 5 4 2 2 4 4 5 6 4 3 5 6 6 10 12 13 12 13 12 13 13 12 13 12 12 9 6 9 9 8 8 11 6 5 7 9 10 9 9 10
6 7 6 6 5 3 1 1 4 6 6 6 6 6 6 5 6 10 11 12 13 12 13 14 14 13 13 14 12 9 8 7 8 11 15 11 10 7 9 10 9 9 10
Wind_Direction
199 188 191 178 175 174 172 169 166 161 155 149 141 133 124 116 108 102 95 89 84 79 74 71 69 67 66 66 64 60 58 55 50 45 41 47 62 65 67 66 60 50 60
168 176 189 178 176 176 175 173 169 165 161 155 150 143 135 126 118 112 103 96 90 84 78 74 71 69 67 67 67 65 62 59 54 47 40 29 43 64 62 61 62 59 61
157 171 187 178 178 178 178 176 172 169 168 163 158 152 145 138 130 123 115 105 97 89 83 77 74 72 70 70 69 67 64 61 54 45 34 15 15 61 63 61 60 60 60
161 170 186 179 179 180 180 179 175 174 173 170 165 160 155 149 143 133 125 116 107 98 91 83 78 76 74 74 72 69 66 60 51 42 25 8 2 56 61 60 59 58 58
162 170 187 179 181 182 183 181 179 178 177 176 173 169 165 160 154 146 137 128 118 110 102 93 85 80 79 78 77 73 69 59 45 33 16 5 354 52 59 59 58 58 57
164 170 189 181 183 185 186 185 183 183 182 181 179 177 174 170 165 157 149 141 132 124 114 103 92 82 81 83 83 79 72 59 38 20 11 0 345 47 59 59 59 58 56
165 171 190 183 185 187 189 188 187 188 188 187 186 184 183 180 175 168 163 156 150 143 131 119 105 91 81 83 89 89 81 63 44 18 4 353 338 47 56 56 56 57 56
163 168 185 189 189 190 192 192 192 192 193 193 192 191 191 188 184 180 178 173 169 162 151 139 124 106 90 84 90 98 95 71 37 9 349 342 341 48 55 51 50 53 53
162 171 188 198 191 194 195 196 196 196 197 197 197 197 197 195 193 191 190 188 185 179 171 164 150 136 114 92 94 101 110 97 52 355 341 333 339 36 50 47 44 46 48
170 182 191 206 194 190 194 199 199 200 201 202 202 201 202 202 202 201 197 198 197 196 191 190 189 189 188 167 118 126 125 90 41 340 330 315 330 2 30 30 24 28 33
192 196 195 202 199 186 183 199 200 203 204 204 204 204 202 194 188 204 196 204 209 209 208 210 213 218 217 273 298 186 89 95 352 306 307 300 310 319 332 339 336 336 344
201 199 198 199 195 186 186 191 193 194 197 195 183 191 173 147 163 167 204 210 219 220 221 223 226 231 173 57 4 32 69 128 254 279 283 288 290 290 288 284 284 288 290
201 199 200 199 192 188 186 180 178 177 178 179 175 168 148 145 160 164 166 220 238 244 238 276 348 85 105 140 162 181 209 222 239 258 274 279 280 278 275 271 267 269 270
200 204 200 195 194 194 187 181 175 176 180 179 175 164 153 155 166 165 170 179 167 131 148 154 153 155 175 197 213 228 232 227 231 238 257 268 273 273 272 269 264 262 261
213 207 200 195 198 193 191 187 184 186 185 180 174 174 169 171 178 178 183 185 187 175 183 197 205 214 225 232 232 232 236 234 234 233 247 262 268 270 270 269 266 263 260
218 209 197 199 199 193 198 198 194 187 182 178 183 182 180 180 180 182 190 196 199 194 195 199 208 218 230 235 245 240 241 240 238 236 233 254 262 266 268 268 267 265 263
224 207 198 201 197 199 203 202 195 186 182 189 191 186 188 187 185 189 196 204 207 197 196 201 215 220 237 239 246 245 245 242 242 241 238 234 248 260 263 265 267 266 264
223 207 200 201 199 203 205 203 198 188 193 197 191 189 195 196 191 193 204 213 203 192 195 204 207 218 232 236 244 246 244 242 243 243 241 238 233 242 254 257 261 263 263
221 205 195 198 198 201 202 199 199 192 202 201 194 199 202 202 199 202 214 215 193 196 206 216 210 207 228 236 242 246 243 243 245 246 243 239 235 235 233 250 254 256 258
134 188 191 196 197 185 183 188 197 211 214 208 207 210 204 207 206 210 220 215 194 201 213 214 222 214 223 235 253 258 249 243 239 240 244 242 237 234 232 234 243 252 253
38 55 189 193 189 167 166 184 201 223 219 220 221 218 212 212 209 213 224 216 205 216 223 217 216 223 231 207 249 280 264 243 241 241 237 237 238 236 230 228 228 228 246
25 19 6 210 191 186 184 170 180 188 210 216 219 223 219 218 216 217 223 225 216 222 227 220 208 212 220 183 188 241 297 297 245 237 234 233 237 233 230 230 226 226 227
21 8 4 328 199 193 175 144 117 97 358 250 229 230 227 223 222 224 225 226 222 219 227 225 217 214 226 210 196 193 222 249 295 262 232 231 230 226 230 230 228 228 227
9 9 19 28 62 161 163 167 185 205 229 234 227 232 231 221 226 227 229 228 228 225 229 230 222 220 221 226 210 219 227 209 233 289 262 242 233 228 226 229 230 229 227
13 20 23 38 46 62 158 188 200 229 245 259 255 251 245 234 230 230 230 230 232 231 231 232 227 221 220 227 218 206 228 237 228 246 270 255 238 228 225 225 225 225 225
19 23 23 34 34 32 66 195 219 242 259 273 270 265 262 250 241 236 234 234 236 235 235 234 232 227 227 227 228 217 206 207 210 220 246 255 253 233 221 223 222 222 223